TimeCDT,TemperatureF,Dew PointF,Humidity,Sea Level PressureIn,VisibilityMPH,Wind Direction,Wind SpeedMPH,Gust SpeedMPH,PrecipitationIn,Events,Conditions,WindDirDegrees,DateUTC
12:54 AM,68.0,60.1,76,30.01,10.0,South,3.5,-,N/A,,Clear,180,2013-09-07 05:54:00
1:54 AM,64.9,59.0,81,30.01,10.0,South,4.6,-,N/A,,Clear,190,2013-09-07 06:54:00
2:54 AM,66.9,59.0,76,30.00,10.0,South,3.5,-,N/A,,Clear,180,2013-09-07 07:54:00
3:54 AM,64.0,57.9,80,30.01,10.0,South,5.8,-,N/A,,Clear,180,2013-09-07 08:54:00
4:54 AM,64.0,57.9,80,30.01,10.0,South,3.5,-,N/A,,Clear,180,2013-09-07 09:54:00
5:54 AM,62.1,57.0,84,30.00,10.0,South,4.6,-,N/A,,Clear,190,2013-09-07 10:54:00
6:54 AM,63.0,57.9,84,30.02,8.0,South,6.9,-,N/A,,Clear,190,2013-09-07 11:54:00
7:54 AM,66.9,61.0,81,30.02,9.0,SSW,5.8,-,N/A,,Clear,200,2013-09-07 12:54:00
8:54 AM,73.0,62.1,68,30.01,10.0,SW,8.1,-,N/A,,Clear,220,2013-09-07 13:54:00
9:54 AM,79.0,63.0,58,29.99,10.0,WSW,8.1,-,N/A,,Clear,240,2013-09-07 14:54:00
10:54 AM,84.0,63.0,49,30.00,10.0,SW,4.6,-,N/A,,Clear,230,2013-09-07 15:54:00
11:54 AM,86.0,64.0,48,29.99,10.0,WSW,9.2,-,N/A,,Clear,240,2013-09-07 16:54:00
12:54 PM,89.1,64.0,43,29.96,10.0,WSW,10.4,-,N/A,,Clear,240,2013-09-07 17:54:00
1:54 PM,91.0,64.0,41,29.94,10.0,SW,10.4,16.1,N/A,,Clear,230,2013-09-07 18:54:00
2:54 PM,93.9,61.0,33,29.90,10.0,SW,11.5,-,N/A,,Clear,220,2013-09-07 19:54:00
3:54 PM,91.9,61.0,35,29.88,10.0,SW,11.5,-,N/A,,Clear,220,2013-09-07 20:54:00
4:54 PM,93.9,61.0,33,29.88,10.0,SW,10.4,-,N/A,,Clear,230,2013-09-07 21:54:00
5:54 PM,93.0,61.0,34,29.88,10.0,SW,8.1,-,N/A,,Clear,220,2013-09-07 22:54:00
6:54 PM,89.1,63.0,42,29.88,10.0,South,4.6,-,N/A,,Clear,180,2013-09-07 23:54:00
7:54 PM,86.0,63.0,46,29.88,10.0,South,6.9,-,N/A,,Clear,170,2013-09-08 00:54:00
8:54 PM,84.9,63.0,48,29.88,10.0,South,6.9,-,N/A,,Clear,180,2013-09-08 01:54:00
9:54 PM,82.0,63.0,52,29.88,10.0,SSW,6.9,-,N/A,,Clear,200,2013-09-08 02:54:00
10:54 PM,81.0,63.0,54,29.88,10.0,SSW,4.6,-,N/A,,Partly Cloudy,210,2013-09-08 03:54:00
11:54 PM,81.0,63.0,54,29.89,10.0,South,3.5,-,0.00,,Clear,180,2013-09-08 04:54:00